| time (UTC) | temp F | wind direction | speed knots | gust knots | rain 1hr in | rain 24hr in | rain mn in | humidity % | barometer mb |
| 20260905133028 | 68 | 282 | 0.0 | 2.6 | 0.00 | 0.00 | 0.00 | 84 | 1011.6 |
| 20260905131526 | 67 | 282 | 0.0 | 2.6 | 0.00 | 0.00 | 0.00 | 86 | 1011.6 |
| 20260905130021 | 66 | 282 | 0.0 | 1.7 | 0.00 | 0.00 | 0.00 | 87 | 1011.8 |
| 20260905124522 | 65 | 282 | 0.0 | 0.0 | 0.00 | 0.00 | 0.00 | 90 | 1011.7 |
| 20260905123020 | 64 | 282 | 0.0 | 0.0 | 0.00 | 0.00 | 0.00 | 93 | 1011.9 |
| 20260905121518 | 63 | 282 | 0.0 | 0.0 | 0.00 | 0.00 | 0.00 | 94 | 1011.9 |
| 20260905120024 | 62 | 282 | 0.0 | 0.0 | 0.00 | 0.00 | 0.00 | 95 | 1011.9 |
| 20260905114517 | 62 | 282 | 0.0 | 0.0 | 0.00 | 0.00 | 0.00 | 95 | 1011.7 |
| 20260905113015 | 61 | 282 | 0.0 | 0.0 | 0.00 | 0.00 | 0.00 | 94 | 1011.5 |
| 20260905111515 | 61 | 282 | 0.0 | 0.0 | 0.00 | 0.00 | 0.00 | 94 | 1011.3 |
| 20260905110114 | 61 | 282 | 0.0 | 0.0 | 0.00 | 0.00 | 0.00 | 93 | 1011.2 |
| 20260905104513 | 61 | 282 | 0.0 | 0.0 | 0.00 | 0.00 | 0.00 | 93 | 1011.1 |
| 20260905103012 | 61 | 282 | 0.0 | 0.0 | 0.00 | 0.00 | 0.00 | 93 | 1011.0 |
| 20260905101510 | 61 | 282 | 0.0 | 0.0 | 0.00 | 0.00 | 0.00 | 92 | 1010.9 |
| 20260905100009 | 62 | 282 | 0.0 | 0.0 | 0.00 | 0.00 | 0.00 | 92 | 1010.8 |
| 20260905094508 | 62 | 282 | 0.0 | 0.0 | 0.00 | 0.00 | 0.00 | 92 | 1010.7 |
| 20260905093006 | 62 | 282 | 0.0 | 0.0 | 0.00 | 0.00 | 0.00 | 92 | 1010.7 |
| 20260905091507 | 63 | 282 | 0.0 | 0.0 | 0.00 | 0.00 | 0.00 | 91 | 1010.6 |
| 20260905090005 | 63 | 282 | 0.0 | 0.0 | 0.00 | 0.01 | 0.00 | 90 | 1010.6 |
| 20260905084600 | 64 | 282 | 0.0 | 0.0 | 0.00 | 0.01 | 0.00 | 89 | 1010.6 |
| 20260905083058 | 64 | 282 | 0.0 | 0.0 | 0.00 | 0.01 | 0.00 | 89 | 1010.7 |
| 20260905081557 | 65 | 282 | 0.0 | 0.0 | 0.00 | 0.01 | 0.00 | 89 | 1010.7 |
| 20260905080056 | 65 | 282 | 0.0 | 0.0 | 0.00 | 0.01 | 0.00 | 90 | 1010.7 |
| 20260905074555 | 65 | 282 | 0.0 | 0.0 | 0.00 | 0.08 | 0.00 | 91 | 1010.6 |
| 20260905073053 | 65 | 282 | 0.0 | 0.0 | 0.00 | 0.08 | 0.00 | 93 | 1010.5 |
| 20260905071552 | 65 | 282 | 0.0 | 0.0 | 0.00 | 0.08 | 0.00 | 92 | 1010.7 |
| 20260905070051 | 65 | 282 | 0.0 | 0.0 | 0.00 | 0.08 | 0.00 | 95 | 1010.7 |
| 20260905064552 | 65 | 282 | 0.0 | 0.0 | 0.00 | 0.22 | 0.00 | 94 | 1010.8 |
| 20260905063048 | 65 | 282 | 0.0 | 0.0 | 0.00 | 0.22 | 0.00 | 94 | 1010.9 |
| 20260905061558 | 65 | 282 | 0.0 | 0.0 | 0.00 | 0.22 | 0.00 | 95 | 1011.0 |
| 20260905060048 | 65 | 282 | 0.0 | 0.0 | 0.00 | 0.22 | 0.00 | 95 | 1011.1 |
| 20260905054543 | 66 | 282 | 0.0 | 0.0 | 0.00 | 0.32 | 0.00 | 95 | 1011.3 |
| 20260905053042 | 66 | 282 | 0.0 | 0.0 | 0.00 | 0.32 | 0.00 | 95 | 1011.4 |
| 20260905051541 | 66 | 282 | 0.0 | 0.0 | 0.00 | 0.32 | 0.00 | 95 | 1011.3 |
| 20260905050039 | 66 | 282 | 0.0 | 0.0 | 0.00 | 0.32 | 0.00 | 95 | 1011.5 |
| 20260905044543 | 66 | 282 | 0.0 | 0.0 | 0.00 | 0.35 | 0.00 | 95 | 1011.6 |
| 20260905043045 | 66 | 282 | 0.0 | 0.0 | 0.00 | 0.35 | 0.00 | 95 | 1011.8 |
| 20260905041534 | 66 | 282 | 0.0 | 0.0 | 0.00 | 0.35 | 0.00 | 95 | 1011.8 |
| 20260905040034 | 66 | 282 | 0.0 | 0.0 | 0.00 | 0.35 | 0.00 | 95 | 1011.7 |
| 20260905034534 | 66 | 282 | 0.0 | 0.0 | 0.00 | 0.36 | 0.35 | 95 | 1011.9 |
| 20260905033034 | 66 | 282 | 0.0 | 0.0 | 0.00 | 0.36 | 0.35 | 95 | 1011.9 |
| 20260905031535 | 66 | 282 | 0.0 | 0.0 | 0.00 | 0.36 | 0.35 | 95 | 1011.9 |
| 20260905030033 | 66 | 282 | 0.0 | 0.0 | 0.00 | 0.36 | 0.35 | 94 | 1011.7 |
| 20260905024530 | 66 | 282 | 0.0 | 0.0 | 0.00 | 0.36 | 0.35 | 94 | 1011.6 |
| 20260905023030 | 66 | 282 | 0.0 | 0.0 | 0.00 | 0.36 | 0.35 | 94 | 1011.5 |
| 20260905021532 | 67 | 282 | 0.0 | 0.0 | 0.00 | 0.36 | 0.35 | 94 | 1011.6 |
| 20260905020041 | 67 | 282 | 0.0 | 0.0 | 0.00 | 0.36 | 0.35 | 93 | 1011.7 |
| 20260905014525 | 67 | 282 | 0.0 | 0.0 | 0.00 | 0.36 | 0.35 | 93 | 1011.6 |
| 20260905013031 | 67 | 282 | 0.0 | 0.0 | 0.00 | 0.36 | 0.35 | 93 | 1011.7 |
| 20260905011532 | 68 | 282 | 0.0 | 0.0 | 0.00 | 0.36 | 0.35 | 93 | 1011.6 |
| 20260905010021 | 68 | 282 | 0.0 | 0.0 | 0.00 | 0.36 | 0.35 | 93 | 1011.8 |
| 20260905004520 | 68 | 282 | 0.0 | 0.0 | 0.00 | 0.36 | 0.35 | 92 | 1011.6 |
| 20260905003028 | 68 | 282 | 0.0 | 0.0 | 0.00 | 0.36 | 0.35 | 91 | 1011.5 |
| 20260905001520 | 69 | 282 | 0.0 | 0.0 | 0.00 | 0.36 | 0.35 | 90 | 1011.4 |
| 20260905000019 | 70 | 282 | 0.0 | 0.0 | 0.00 | 0.36 | 0.35 | 90 | 1011.4 |
| 20260904234520 | 71 | 282 | 0.0 | 0.0 | 0.00 | 0.36 | 0.35 | 89 | 1011.3 |
| 20260904233017 | 71 | 282 | 0.0 | 0.0 | 0.00 | 0.36 | 0.35 | 88 | 1011.3 |
| 20260904231516 | 72 | 282 | 0.0 | 0.0 | 0.00 | 0.36 | 0.35 | 87 | 1011.1 |
| 20260904230016 | 72 | 282 | 0.0 | 0.0 | 0.00 | 0.36 | 0.35 | 85 | 1011.1 |
| 20260904224516 | 73 | 282 | 0.0 | 0.0 | 0.00 | 0.36 | 0.35 | 84 | 1011.2 |
| 20260904223015 | 74 | 282 | 0.0 | 0.0 | 0.00 | 0.36 | 0.35 | 81 | 1011.2 |
| 20260904221515 | 74 | 282 | 0.0 | 0.0 | 0.00 | 0.36 | 0.35 | 81 | 1011.1 |
| 20260904220015 | 75 | 282 | 0.0 | 0.0 | 0.00 | 0.36 | 0.35 | 82 | 1011.0 |
| 20260904214514 | 76 | 282 | 0.0 | 0.0 | 0.00 | 0.36 | 0.35 | 82 | 1011.1 |
| 20260904213015 | 76 | 282 | 0.0 | 0.0 | 0.00 | 0.36 | 0.35 | 80 | 1011.0 |
| 20260904211512 | 77 | 282 | 0.0 | 0.0 | 0.00 | 0.36 | 0.35 | 77 | 1010.9 |
| 20260904210013 | 78 | 282 | 0.0 | 0.0 | 0.00 | 0.36 | 0.35 | 74 | 1011.0 |
| 20260904204512 | 79 | 282 | 0.0 | 1.7 | 0.00 | 0.36 | 0.35 | 66 | 1011.1 |
| 20260904203016 | 79 | 282 | 0.0 | 0.0 | 0.00 | 0.36 | 0.35 | 69 | 1011.2 |
| 20260904201511 | 79 | 282 | 0.0 | 0.0 | 0.00 | 0.36 | 0.35 | 66 | 1011.3 |
| 20260904200015 | 80 | 282 | 0.0 | 0.0 | 0.00 | 0.36 | 0.35 | 65 | 1011.4 |
| 20260904194509 | 81 | 283 | 0.0 | 1.7 | 0.00 | 0.36 | 0.35 | 64 | 1011.2 |
| 20260904193011 | 82 | 283 | 0.0 | 0.0 | 0.00 | 0.36 | 0.35 | 66 | 1011.5 |
| 20260904191509 | 83 | 283 | 0.0 | 1.7 | 0.00 | 0.36 | 0.35 | 60 | 1011.7 |
| 20260904190007 | 83 | 283 | 0.0 | 1.7 | 0.00 | 0.36 | 0.35 | 67 | 1011.8 |
| 20260904184507 | 83 | 282 | 0.0 | 1.7 | 0.00 | 0.36 | 0.35 | 66 | 1011.8 |
| 20260904183005 | 84 | 283 | 0.0 | 2.6 | 0.00 | 0.36 | 0.35 | 56 | 1011.8 |
| 20260904180053 | 84 | 283 | 0.0 | 2.6 | 0.00 | 0.36 | 0.35 | 63 | 1011.7 |
| 20260904174554 | 83 | 283 | 0.0 | 1.7 | 0.00 | 0.36 | 0.35 | 66 | 1011.9 |
| 20260904173049 | 83 | 283 | 0.0 | 2.6 | 0.00 | 0.36 | 0.35 | 62 | 1011.8 |
| 20260904171547 | 83 | 283 | 0.0 | 1.7 | 0.00 | 0.36 | 0.35 | 69 | 1011.8 |
| 20260904170045 | 83 | 283 | 0.0 | 3.5 | 0.00 | 0.36 | 0.35 | 62 | 1011.9 |
| 20260904164547 | 82 | 283 | 0.0 | 3.5 | 0.00 | 0.36 | 0.35 | 64 | 1012.0 |
| 20260904163042 | 82 | 283 | 0.9 | 2.6 | 0.00 | 0.36 | 0.35 | 66 | 1011.9 |
| 20260904161540 | 81 | 283 | 0.0 | 3.5 | 0.00 | 0.36 | 0.35 | 72 | 1012.0 |
| 20260904160038 | 80 | 282 | 0.0 | 1.7 | 0.00 | 0.36 | 0.35 | 78 | 1012.0 |
| 20260904154544 | 79 | 283 | 0.0 | 4.3 | 0.00 | 0.36 | 0.35 | 77 | 1012.4 |
| 20260904153032 | 79 | 283 | 0.0 | 3.5 | 0.00 | 0.36 | 0.35 | 79 | 1012.4 |
| 20260904151527 | 77 | 283 | 0.0 | 1.7 | 0.00 | 0.36 | 0.35 | 84 | 1012.4 |
| 20260904150024 | 75 | 282 | 0.0 | 0.0 | 0.00 | 0.36 | 0.35 | 91 | 1012.5 |
| 20260904144521 | 75 | 282 | 0.0 | 0.0 | 0.00 | 0.36 | 0.35 | 90 | 1012.4 |
| 20260904143030 | 74 | 282 | 0.0 | 0.0 | 0.00 | 0.36 | 0.35 | 93 | 1012.3 |
| 20260904141518 | 73 | 282 | 0.0 | 2.6 | 0.00 | 0.36 | 0.35 | 95 | 1012.4 |
| 20260904140032 | 73 | 282 | 0.0 | 2.6 | 0.00 | 0.36 | 0.35 | 97 | 1012.4 |
| 20260904134513 | 72 | 282 | 0.0 | 0.0 | 0.00 | 0.36 | 0.35 | 97 | 1012.2 |